STARLINK-35956

Last updated on Wed Dec 31 2025 00:02:06 GMT+0000 (Coordinated Universal Time)

1 66629U 25271N 25364.60482880 .00899037 00000+0 91695-2 0 9999 2 66629 53.1707 101.2560 0013143 27.5480 332.6229 15.62039984 1844

Satellite not in orbit